Borden, Ontario

6:55 AM EST on February 24, 2018 (GMT -0500)
Borden

Weather History for CYBN - October, 2012

Change the Weather History Date:

Tuesday, October 16, 2012

  Actual Average Record
Temperature  
Mean Temperature 44 °F -  
Max Temperature 52 °F 48 °F 77 °F (1999)
Min Temperature 35 °F 33 °F 28 °F (2006)
Degree Days  
Heating Degree Days 22    
Moisture  
Dew Point 35 °F    
Average Humidity 76    
Maximum Humidity 87    
Minimum Humidity 44    
Precipitation  
Precipitation 0.00 in - - ()
Sea Level Pressure  
Sea Level Pressure 29.87 in    
Wind  
Wind Speed 5 mph ()    
Max Wind Speed 13 mph    
Max Gust Speed -    
Visibility 9.0 miles    
Events Rain    
Averages and records for this station are not official NWS values.
T = Trace of Precipitation, MM = Missing Value Source: Averaged Metar Reports

Daily Weather History Graph

Daily Weather History Graph

Search for Another Location

Airport or City:

Trip Planner

Search our weather history database for the weather conditions in past years. The results will help you decide how hot, cold, wet, or windy it might be!

Date:

Astronomy

Oct. 16, 2012 Rise Set
Actual Time 7:36 AM EDT 6:33 PM EDT
Civil Twilight 7:07 AM EDT 7:02 PM EDT
Nautical Twilight 6:33 AM EDT 7:35 PM EDT
Astronomical Twilight 5:59 AM EDT 8:09 PM EDT
Moon 9:02 AM EDT (10/16) 7:10 PM EDT (10/16)
Length of Visible Light 11h 55m
Length of Day
10h 56m
New Moon, 2% of the Moon is Illuminated
Oct 16
New Moon
Oct 21
First Quarter
Oct 29
Full
Nov 6
Last Quarter
Nov 13
New

Hourly Weather History & Observations

Time (EDT) Temp. Windchill Dew Point Humidity Pressure Visibility Wind Dir Wind Speed Gust Speed Precip Events Conditions
12:00 AM 41.0 °F 35.2 °F 37.4 °F 87% 29.82 in 9.0 mi WNW 9.2 mph - N/A   Overcast
12:02 AM 41.0 °F 35.2 °F 37.4 °F 87% 29.80 in 9.0 mi WNW 9.2 mph - N/A Rain Light Rain
12:41 AM 41.0 °F 39.0 °F 37.4 °F 87% 29.81 in 9.0 mi WNW 3.5 mph - N/A   Overcast
12:44 AM 41.0 °F 38.0 °F 37.4 °F 87% 29.81 in 9.0 mi WNW 4.6 mph - N/A Rain Light Rain
1:00 AM 41.0 °F 37.1 °F 37.4 °F 87% 29.84 in 9.0 mi WNW 5.8 mph - N/A Rain Light Rain
2:00 AM 42 °F - 37 °F 75% 29.86 in 9 mi WNW 8.1 mph - -   Unknown Precipitation
2:00 AM 41.0 °F 35.8 °F 37.4 °F 87% 29.86 in 9.0 mi WNW 8.1 mph - N/A Rain Light Rain
2:29 AM 41.0 °F 35.2 °F 35.6 °F 81% 29.83 in 9.0 mi WNW 9.2 mph - N/A Rain Light Rain
2:30 AM 41.0 °F 35.2 °F 35.6 °F 81% 29.83 in 9.0 mi WNW 9.2 mph - N/A   Overcast
2:47 AM 41.0 °F 38.0 °F 35.6 °F 81% 29.84 in 9.0 mi West 4.6 mph - N/A Rain Light Rain
2:59 AM 39.2 °F - 35.6 °F 87% 29.84 in 9.0 mi North 2.3 mph - N/A Rain Light Rain
3:00 AM 39.2 °F - 35.6 °F 87% 29.86 in 9.0 mi North 2.3 mph - N/A Rain Light Rain
4:00 AM 39.2 °F - 35.6 °F 87% 29.86 in 9.0 mi WSW 2.3 mph - N/A Rain Light Rain
5:00 AM 39.2 °F 37.0 °F 35.6 °F 87% 29.88 in 9.0 mi North 3.5 mph - N/A Rain Light Rain
6:00 AM 39.2 °F 37.0 °F 35.6 °F 87% 29.89 in 9.0 mi West 3.5 mph - N/A Rain Light Rain
6:19 AM 39.2 °F - 33.8 °F 81% 29.87 in 9.0 mi West 2.3 mph - N/A   Overcast
6:40 AM 39.2 °F - 33.8 °F 81% 29.87 in 9.0 mi NNE 2.3 mph - N/A   Overcast
7:00 AM 39.2 °F - 33.8 °F 81% 29.89 in 9.0 mi Calm Calm - N/A   Overcast
8:00 AM 36 °F - 30 °F 70% 29.91 in 9 mi WNW 3.5 mph - -  
8:00 AM 37.4 °F 34.9 °F 30.2 °F 75% 29.91 in 9.0 mi NW 3.5 mph - N/A   Partly Cloudy
9:00 AM 39.2 °F 33.6 °F 32.0 °F 75% 29.93 in 9.0 mi West 8.1 mph - N/A   Partly Cloudy
10:00 AM 42.8 °F 37.0 °F 32.0 °F 66% 29.93 in 9.0 mi West 10.4 mph - N/A   Scattered Clouds
11:00 AM 44.6 °F 38.4 °F 32.0 °F 61% 29.94 in 9.0 mi WNW 12.7 mph - N/A   Overcast
12:00 PM 44.6 °F 39.7 °F 30.2 °F 57% 29.94 in 9.0 mi NNW 9.2 mph - N/A   Mostly Cloudy
1:00 PM 48.2 °F - 33.8 °F 58% 29.91 in 9.0 mi WNW 9.2 mph - N/A   Mostly Cloudy
2:00 PM 49 °F - 34 °F 44% 29.90 in 9 mi NW 6.9 mph - -  
2:00 PM 48.2 °F - 33.8 °F 58% 29.90 in 9.0 mi WNW 6.9 mph - N/A   Mostly Cloudy
4:00 PM 51.8 °F - 33.8 °F 50% 29.87 in 9.0 mi WSW 8.1 mph - N/A   Partly Cloudy
5:00 PM 50.0 °F - 35.6 °F 58% 29.86 in 9.0 mi NNE 4.6 mph - N/A   Clear
6:00 PM 48.2 °F - 37.4 °F 66% 29.86 in 9.0 mi NE 3.5 mph - N/A   Partly Cloudy
7:00 PM 42.8 °F - 37.4 °F 81% 29.87 in 9.0 mi Calm Calm - N/A   Clear
8:00 PM 38 °F - 33 °F 77% 29.87 in 9 mi Calm Calm - -  
8:00 PM 39.2 °F - 33.8 °F 81% 29.87 in 9.0 mi Calm Calm - N/A   Clear
9:00 PM 39.2 °F - 33.8 °F 81% 29.86 in 9.0 mi Calm Calm - N/A   Mostly Cloudy
10:00 PM 35.6 °F - 32.0 °F 87% 29.86 in 9.0 mi SSW 2.3 mph - N/A   Partly Cloudy
11:00 PM 35.6 °F 29.9 °F 32.0 °F 87% 29.85 in 9.0 mi SSE 6.9 mph - N/A   Clear